Regional Weather Roundup
Issued by NWS Raleigh/Durham, NC

Home | Current Version | Previous Version | Text Only | Print | Product List | Glossary On
Versions: 1 2 3 4 5 6 7 8 9 10 11 12 13 14 15 16 17 18 19 20 21 22 23 24 25 26 27 28 29 30 31 32 33 34 35 36 37 38 39 40 41 42 43 44 45 46 47 48
000
ASUS42 KRAH 280110
RWRRAH
NORTH CAROLINA WEATHER ROUNDUP
NATIONAL WEATHER SERVICE RALEIGH NC
800 PM EST THU NOV 27 2014

NOTE: "FAIR" INDICATES FEW OR NO CLOUDS BELOW 12,000 FEET WITH NO
SIGNIFICANT WEATHER AND/OR OBSTRUCTIONS TO VISIBILITY.

NCZ001-053-055-056-065-067-280200-
WESTERN NORTH CAROLINA

CITY           SKY/WX    TMP DP  RH WIND       PRES   REMARKS
ASHEVILLE      CLOUDY    32  24  72 N13G24    30.25R WCI  22
JEFFERSON      CLOUDY    26  21  79 NW13G18   30.14S WCI  15
MORGANTON      CLEAR     37  23  56 NW8       30.29R WCI  31
HICKORY        MOCLDY    37  21  52 NW6       30.24R WCI  32
RUTHERFORDTON  PTCLDY    38  22  53 W3        30.27R
MOUNT AIRY     CLOUDY    38  23  56 NW14G21   30.24R WCI  29
BOONE          MIX PCPN  26  22  84 NW13G26   30.15S WCI  15
$$

NCZ021-022-025-041-071-084-088-280200-
CENTRAL NORTH CAROLINA

CITY           SKY/WX    TMP DP  RH WIND       PRES   REMARKS
CHARLOTTE      PTCLDY    39  22  50 NW6       30.25R WCI  35
GREENSBORO     MOCLDY    39  25  57 NW10      30.21R WCI  32
WINSTON-SALEM  CLOUDY    39  25  57 NW6       30.24R WCI  35
RALEIGH-DURHAM PTCLDY    40  28  62 NW6       30.20R
FORT BRAGG     CLEAR     42  31  64 NW8       30.21R
FAYETTEVILLE   CLEAR     45  29  53 NW12      30.20R
BURLINGTON     CLOUDY    40  26  57 W7        30.22R
LAURINBURG     CLEAR     41  31  67 N7        30.22R
$$

NCZ011-015-027-028-043-044-047-080-103-280200-
NORTHEASTERN NORTH CAROLINA

CITY           SKY/WX    TMP DP  RH WIND       PRES   REMARKS
ROCKY MT-WILSO CLEAR     40  34  79 NW8       30.19R WCI  34
GREENVILLE     CLEAR     41  37  87 CALM      30.19R
WASHINGTON     CLEAR     40  37  90 CALM      30.16R
ELIZABETH CITY CLOUDY    45  39  79 NW8       30.14R
MANTEO         MOCLDY    43  39  86 N16       30.12R
CAPE HATTERAS  PTCLDY    44  39  82 NW13G21   30.11R
$$

NCZ078-087-090-091-093-098-101-280200-
SOUTHEASTERN NORTH CAROLINA

CITY           SKY/WX    TMP DP  RH WIND       PRES   REMARKS
LUMBERTON      CLEAR     45  32  60 N9        30.20R
GOLDSBORO      CLOUDY    44  41  92 CALM      30.18R
KINSTON        PTCLDY    39  37  93 CALM      30.19R
KENANSVILLE    CLEAR     41  37  85 W3        30.20R
NEW BERN       CLEAR     44  37  76 W6        30.17R
CHERRY POINT   CLEAR     43  38  82 NW8       30.17R
BEAUFORT       CLEAR     44  40  85 NW13      30.16R
JACKSONVILLE   CLEAR     42  37  82 NW8       30.18R
WILMINGTON     CLEAR     43  37  79 NW5       30.19R
$$




USA.gov is the U.S. government's official web portal to all federal, state and local government web resources and services.